�v������,���r���O(���x),�����t���O,���r���O(���x),�����t���O,��1(���x),�����t���O,��1(���x),�����t���O,�O�C���x,�����t���O,�O�C���x,�����t���O,�������x,�����t���O,�C�ۑ�(���x),�����t���O,�C�ۑ�(���x),�����t���O
10/1/2004 0:00,25.5,0,50,0,26.6,0,53,0,21.2,0,41,0,0,2,21.6,0,57.8,0
10/1/2004 0:15,25.5,0,50,0,26.6,0,54,0,21.3,0,41,0,0,2,21.4,0,58.8,0
10/1/2004 0:30,25.5,0,49,0,26.6,0,55,0,21.6,0,41,0,0,2,21.2,0,59.8,0
10/1/2004 0:45,25.5,0,49,0,26.8,0,55,0,21,0,44,0,0,2,21.1,0,60.8,0
10/1/2004 1:00,25.5,0,50,0,26.8,0,56,0,21.6,0,45,0,0,2,20.9,0,61.8,0
10/1/2004 1:15,25.5,0,50,0,26.8,0,57,0,20.9,0,45,0,0,2,20.7,0,62.3,0
10/1/2004 1:30,25.5,0,50,0,26.8,0,58,0,20.4,0,47,0,0,2,20.5,0,62.8,0
10/1/2004 1:45,25.6,0,51,0,26.8,0,59,0,20.4,0,48,0,0,2,20.3,0,63.3,0
10/1/2004 2:00,25.6,0,51,0,26.8,0,59,0,19.8,0,51,0,0,2,20.1,0,63.8,0
10/1/2004 2:15,25.5,0,51,0,26.8,0,59,0,19.9,0,50,0,0,2,20,0,64.1,0
10/1/2004 2:30,25.3,0,51,0,26.8,0,59,0,20.4,0,49,0,0,2,19.9,0,64.3,0
10/1/2004 2:45,25.2,0,51,0,26.8,0,59,0,19.9,0,50,0,0,2,19.8,0,64.6,0
10/1/2004 3:00,25.1,0,50,0,26.8,0,59,0,19.4,0,51,0,0,2,19.7,0,64.8,0
10/1/2004 3:15,25.1,0,50,0,26.8,0,59,0,20.4,0,50,0,0,2,19.5,0,67.1,0
10/1/2004 3:30,25,0,50,0,26.8,0,59,0,19.9,0,50,0,0,2,19.2,0,69.3,0
10/1/2004 3:45,24.9,0,50,0,26.8,0,59,0,18.6,0,54,0,0,2,19,0,71.6,0
10/1/2004 4:00,24.8,0,51,0,26.6,0,59,0,19.5,0,55,0,0,2,18.8,0,73.8,0
10/1/2004 4:15,24.8,0,50,0,26.6,0,59,0,19.8,0,52,0,0,2,18.9,0,71.8,0
10/1/2004 4:30,24.6,0,50,0,26.6,0,59,0,20,0,50,0,0,2,18.9,0,69.8,0
10/1/2004 4:45,24.5,0,50,0,26.5,0,59,0,19.8,0,49,0,0,2,19,0,67.8,0
10/1/2004 5:00,24.2,0,50,0,26.5,0,59,0,19.2,0,50,0,0,2,19.1,0,65.8,0
10/1/2004 5:15,24.1,0,50,0,26.4,0,59,0,19.8,0,46,0,0,2,19,0,65.3,0
10/1/2004 5:30,24,0,48,0,26.4,0,59,0,19.9,0,43,0,0,2,18.9,0,64.8,0
10/1/2004 5:45,23.8,0,48,0,26.3,0,59,0,19.9,0,43,0,0,2,18.8,0,64.3,0
10/1/2004 6:00,23.8,0,48,0,26.2,0,58,0,19.4,0,43,0,0,2,18.7,0,63.8,0
10/1/2004 6:15,23.7,0,49,0,26.2,0,58,0,18.9,0,44,0,0,2,18.8,0,63.5,0
10/1/2004 6:30,23.6,0,49,0,26.1,0,58,0,19.7,0,41,0,0,2,18.8,0,63.3,0
10/1/2004 6:45,23.5,0,49,0,26,0,57,0,19.6,0,42,0,0,2,18.9,0,63,0
10/1/2004 7:00,23.3,0,49,0,25.7,0,48,0,18.7,0,43,0,0,2,19,0,62.8,0
10/1/2004 7:15,23.6,0,48,0,25.5,0,45,0,19.5,0,42,0,0,2,19.5,0,61.5,0
10/1/2004 7:30,23.7,0,46,0,25.3,0,46,0,19.8,0,41,0,0,2,20,0,60.3,0
10/1/2004 7:45,23.9,0,46,0,25.2,0,46,0,20.1,0,41,0,0,2,20.6,0,59,0
10/1/2004 8:00,24.1,0,46,0,25.1,0,45,0,20.5,0,39,0,0,2,21.1,0,57.8,0
10/1/2004 8:15,24,0,45,0,25.2,0,43,0,20.8,0,38,0,0,2,21.6,0,56,0
10/1/2004 8:30,24.2,0,45,0,25.1,0,42,0,21.3,0,37,0,0,2,22.1,0,54.3,0
10/1/2004 8:45,24.4,0,46,0,25.3,0,40,0,21.8,0,36,0,0,2,22.6,0,52.5,0
10/1/2004 9:00,24.5,0,45,0,25.4,0,41,0,22,0,34,0,0,2,23.1,0,50.8,0
10/1/2004 9:15,24.7,0,44,0,25.5,0,42,0,22.4,0,33,0,0,2,23.3,0,50,0
10/1/2004 9:30,24.9,0,45,0,25.5,0,41,0,22.9,0,32,0,0,2,23.4,0,49.3,0
10/1/2004 9:45,25.1,0,45,0,25.5,0,42,0,23.1,0,30,0,0,2,23.6,0,48.5,0
10/1/2004 10:00,25.1,0,45,0,25.5,0,41,0,23.5,0,29,0,0,2,23.8,0,47.8,0
10/1/2004 10:15,25.3,0,45,0,25.4,0,41,0,23.7,0,29,0,0,2,23.9,0,47,0
10/1/2004 10:30,25.4,0,44,0,25.4,0,41,0,24.3,0,28,0,0,2,24,0,46.3,0
10/1/2004 10:45,25.5,0,45,0,25.5,0,40,0,24.9,0,27,0,0,2,24.2,0,45.5,0
10/1/2004 11:00,25.5,0,44,0,25.5,0,39,0,25.4,0,25,0,0,2,24.3,0,44.8,0
10/1/2004 11:15,25.5,0,44,0,25.5,0,36,0,26.1,0,23,0,0,2,24.5,0,43.8,0
10/1/2004 11:30,25.7,0,43,0,25.7,0,39,0,26.9,0,23,0,0,2,24.7,0,42.8,0
10/1/2004 11:45,25.7,0,44,0,25.8,0,38,0,27.2,0,21,0,0,2,24.9,0,41.8,0
10/1/2004 12:00,25.8,0,44,0,25.9,0,39,0,27.5,0,22,0,0,2,25.1,0,40.8,0
10/1/2004 12:15,25.9,0,44,0,26,0,37,0,27.1,0,21,0,0,2,25.3,0,39.8,0
10/1/2004 12:30,25.9,0,44,0,26.3,0,41,0,27.4,0,23,0,0,2,25.5,0,38.8,0
10/1/2004 12:45,25.9,0,44,0,26.5,0,38,0,27.9,0,22,0,0,2,25.7,0,37.8,0
10/1/2004 13:00,26,0,43,0,26.8,0,38,0,27.6,0,21,0,0,2,25.9,0,36.8,0
10/1/2004 13:15,26,0,44,0,26.9,0,37,0,28.2,0,21,0,0,2,25.9,0,37.3,0
10/1/2004 13:30,26,0,44,0,27.1,0,36,0,28,0,20,0,0,2,25.9,0,37.8,0
10/1/2004 13:45,26.1,0,44,0,27.2,0,34,0,27.7,0,17,0,0,2,26,0,38.3,0
10/1/2004 14:00,26.4,0,40,0,27.3,0,33,0,28.1,0,20,0,0,2,26,0,38.8,0
10/1/2004 14:15,26.7,0,36,0,27.3,0,33,0,28,0,21,0,0,2,26,0,40.3,0
10/1/2004 14:30,26.8,0,36,0,27.4,0,33,0,27.3,0,21,0,0,2,26,0,41.8,0
10/1/2004 14:45,26.8,0,35,0,27.3,0,33,0,27.1,0,21,0,0,2,26,0,43.3,0
10/1/2004 15:00,26.7,0,35,0,27,0,33,0,26.8,0,23,0,0,2,26,0,44.8,0
10/1/2004 15:15,26.9,0,35,0,27,0,34,0,26.7,0,22,0,0,2,25.7,0,47,0
10/1/2004 15:30,26.8,0,34,0,26.9,0,32,0,26.7,0,21,0,0,2,25.4,0,49.3,0
10/1/2004 15:45,26.9,0,35,0,26.9,0,36,0,26.6,0,27,0,0,2,25.1,0,51.5,0
10/1/2004 16:00,27.1,0,37,0,27.1,0,39,0,26.2,0,29,0,0,2,24.8,0,53.8,0
10/1/2004 16:15,27,0,39,0,27,0,40,0,25.6,0,31,0,0,2,24.5,0,54.5,0
10/1/2004 16:30,26.8,0,41,0,26.9,0,40,0,25.4,0,31,0,0,2,24.1,0,55.3,0
10/1/2004 16:45,26.7,0,42,0,26.8,0,42,0,25.2,0,33,0,0,2,23.8,0,56,0
10/1/2004 17:00,26.6,0,44,0,26.6,0,44,0,24.8,0,35,0,0,2,23.5,0,56.8,0
10/1/2004 17:15,26.4,0,45,0,26.5,0,44,0,24.3,0,36,0,0,2,23.3,0,58.3,0
10/1/2004 17:30,25.9,0,47,0,26.5,0,45,0,23.9,0,38,0,0,2,23,0,59.8,0
10/1/2004 17:45,25.6,0,48,0,26.4,0,45,0,23.9,0,37,0,0,2,22.8,0,61.3,0
10/1/2004 18:00,25.9,0,47,0,26.2,0,45,0,23.7,0,38,0,0,2,22.6,0,62.8,0
10/1/2004 18:15,25.9,0,47,0,26.1,0,46,0,23.8,0,38,0,0,2,22.5,0,63.6,0
10/1/2004 18:30,25.8,0,48,0,26,0,47,0,23.5,0,39,0,0,2,22.3,0,64.3,0
10/1/2004 18:45,25.8,0,49,0,26,0,47,0,23.5,0,40,0,0,2,22.2,0,65.1,0
10/1/2004 19:00,25.7,0,49,0,26.1,0,47,0,23.3,0,40,0,0,2,22.1,0,65.8,0
10/1/2004 19:15,25.6,0,49,0,26,0,48,0,23.4,0,40,0,0,2,22,0,66.3,0
10/1/2004 19:30,25.6,0,50,0,26,0,48,0,23.1,0,41,0,0,2,21.8,0,66.8,0
10/1/2004 19:45,25.5,0,49,0,25.9,0,48,0,23,0,41,0,0,2,21.7,0,67.3,0
10/1/2004 20:00,25.4,0,50,0,25.9,0,48,0,22.9,0,41,0,0,2,21.6,0,67.8,0
10/1/2004 20:15,25.3,0,51,0,25.9,0,49,0,23.1,0,42,0,0,2,21.4,0,69.1,0
10/1/2004 20:30,24.9,0,54,0,26,0,49,0,22.2,0,46,0,0,2,21.3,0,70.3,0
10/1/2004 20:45,24.7,0,54,0,26,0,49,0,21.7,0,49,0,0,2,21.1,0,71.6,0
10/1/2004 21:00,24.9,0,55,0,26,0,49,0,22.3,0,46,0,0,2,21,0,72.8,0
10/1/2004 21:15,25,0,55,0,26,0,49,0,22,0,49,0,0,2,20.9,0,73.1,0
10/1/2004 21:30,25.1,0,55,0,25.9,0,49,0,21.6,0,50,0,0,2,20.8,0,73.3,0
10/1/2004 21:45,25.1,0,55,0,25.9,0,50,0,21.6,0,51,0,0,2,20.7,0,73.6,0
10/1/2004 22:00,25.1,0,55,0,25.9,0,51,0,21.5,0,51,0,0,2,20.6,0,73.8,0
10/1/2004 22:15,25,0,55,0,25.9,0,51,0,22.3,0,48,0,0,2,20.6,0,74.1,0
10/1/2004 22:30,25,0,55,0,25.8,0,51,0,22.4,0,47,0,0,2,20.5,0,74.3,0
10/1/2004 22:45,25,0,55,0,25.8,0,52,0,22.1,0,47,0,0,2,20.5,0,74.6,0
10/1/2004 23:00,25,0,55,0,25.8,0,52,0,21.3,0,49,0,0,2,20.5,0,74.8,0
10/1/2004 23:15,24.9,0,55,0,25.8,0,52,0,20.7,0,52,0,0,2,20.6,0,74.6,0
10/1/2004 23:30,24.9,0,55,0,25.9,0,52,0,21.3,0,51,0,0,2,20.8,0,74.3,0
10/1/2004 23:45,24.8,0,55,0,25.9,0,52,0,21.2,0,50,0,0,2,20.9,0,74.1,0
10/2/2004 0:00,24.7,0,56,0,25.9,0,52,0,20.5,0,53,0,0,2,21.1,0,73.8,0
10/2/2004 0:15,24.8,0,56,0,26,0,53,0,20.5,0,55,0,0,2,21.2,0,73.8,0
10/2/2004 0:30,24.8,0,55,0,26,0,54,0,20.9,0,55,0,0,2,21.2,0,73.8,0
10/2/2004 0:45,24.8,0,55,0,26.1,0,54,0,20.3,0,57,0,0,2,21.3,0,73.8,0
10/2/2004 1:00,24.8,0,55,0,26.1,0,55,0,20.8,0,58,0,0,2,21.4,0,73.8,0
10/2/2004 1:15,24.8,0,55,0,26.2,0,55,0,20.7,0,57,0,0,2,21.1,0,74.3,0
10/2/2004 1:30,24.8,0,55,0,26.2,0,56,0,20.7,0,56,0,0,2,20.8,0,74.8,0
10/2/2004 1:45,24.7,0,55,0,26.2,0,57,0,20.7,0,54,0,0,2,20.6,0,75.3,0
10/2/2004 2:00,24.7,0,55,0,26.3,0,58,0,20.3,0,54,0,0,2,20.3,0,75.8,0
10/2/2004 2:15,24.6,0,55,0,26.3,0,59,0,19.9,0,57,0,0,2,20,0,76.3,0
10/2/2004 2:30,24.5,0,55,0,26.3,0,60,0,19.9,0,58,0,0,2,19.7,0,76.8,0
10/2/2004 2:45,24.5,0,54,0,26.3,0,59,0,20.1,0,58,0,0,2,19.4,0,77.3,0
10/2/2004 3:00,24.4,0,55,0,26.3,0,59,0,19.8,0,55,0,0,2,19.1,0,77.8,0
10/2/2004 3:15,24.4,0,54,0,26.3,0,60,0,18.9,0,60,0,0,2,18.8,0,78.1,0
10/2/2004 3:30,24.3,0,54,0,26.3,0,60,0,18.8,0,62,0,0,2,18.6,0,78.3,0
10/2/2004 3:45,24.2,0,54,0,26.3,0,60,0,18.8,0,63,0,0,2,18.3,0,78.6,0
10/2/2004 4:00,24.2,0,54,0,26.3,0,60,0,18.5,0,65,0,0,2,18.1,0,78.8,0
10/2/2004 4:15,24.1,0,54,0,26.2,0,59,0,19.8,0,62,0,0,2,18.1,0,79.1,0
10/2/2004 4:30,24,0,54,0,26.3,0,60,0,18.8,0,61,0,0,2,18,0,79.3,0
10/2/2004 4:45,24.1,0,54,0,26.2,0,60,0,19.5,0,59,0,0,2,18,0,79.6,0
10/2/2004 5:00,24,0,54,0,26.2,0,60,0,19.1,0,59,0,0,2,18,0,79.8,0
10/2/2004 5:15,23.9,0,55,0,26.2,0,59,0,19.1,0,59,0,0,2,18,0,79.8,0
10/2/2004 5:30,23.9,0,55,0,26.1,0,59,0,19.1,0,60,0,0,2,18,0,79.8,0
10/2/2004 5:45,23.8,0,55,0,26.1,0,60,0,19.7,0,59,0,0,2,18,0,79.8,0
10/2/2004 6:00,23.7,0,55,0,26.1,0,59,0,18.8,0,60,0,0,2,18,0,79.8,0
10/2/2004 6:15,23.5,0,55,0,26,0,58,0,18.9,0,60,0,0,2,18.1,0,79.3,0
10/2/2004 6:30,23.5,0,55,0,25.9,0,58,0,18.9,0,61,0,0,2,18.2,0,78.8,0
10/2/2004 6:45,23.3,0,56,0,25.8,0,58,0,19.8,0,59,0,0,2,18.4,0,78.3,0
10/2/2004 7:00,23.3,0,56,0,25.6,0,53,0,19.2,0,58,0,0,2,18.5,0,77.8,0
10/2/2004 7:15,23.3,0,56,0,25.4,0,53,0,19.7,0,59,0,0,2,19,0,76.3,0
10/2/2004 7:30,23.4,0,56,0,25.4,0,52,0,19.7,0,57,0,0,2,19.4,0,74.8,0
10/2/2004 7:45,23.6,0,55,0,25.3,0,52,0,20.4,0,56,0,0,2,19.9,0,73.3,0
10/2/2004 8:00,23.6,0,56,0,25.3,0,52,0,20.6,0,55,0,0,2,20.4,0,71.8,0
10/2/2004 8:15,23.7,0,56,0,25.3,0,52,0,20.8,0,54,0,0,2,21.1,0,70.3,0
10/2/2004 8:30,24,0,55,0,25.4,0,53,0,21.3,0,53,0,0,2,21.8,0,68.8,0
10/2/2004 8:45,24.2,0,54,0,25.5,0,54,0,22,0,51,0,0,2,22.5,0,67.3,0
10/2/2004 9:00,24.3,0,54,0,25.7,0,54,0,22.1,0,50,0,0,2,23.2,0,65.8,0
10/2/2004 9:15,24.5,0,54,0,25.8,0,53,0,22.4,0,49,0,0,2,23.6,0,64.6,0
10/2/2004 9:30,24.6,0,54,0,26,0,52,0,22.8,0,48,0,0,2,24,0,63.3,0
10/2/2004 9:45,24.8,0,54,0,26.1,0,51,0,23.2,0,47,0,0,2,24.4,0,62.1,0
10/2/2004 10:00,25,0,54,0,26.1,0,52,0,24.1,0,46,0,0,2,24.8,0,60.8,0
10/2/2004 10:15,25.1,0,53,0,26.2,0,52,0,24.1,0,45,0,0,2,25.1,0,60,0
10/2/2004 10:30,25.2,0,53,0,26.3,0,52,0,24.9,0,41,0,0,2,25.5,0,59.3,0
10/2/2004 10:45,25.3,0,53,0,26.3,0,51,0,25.5,0,38,0,0,2,25.8,0,58.5,0
10/2/2004 11:00,25.4,0,53,0,26.4,0,51,0,25.4,0,36,0,0,2,26.2,0,57.8,0
10/2/2004 11:15,25.5,0,52,0,26.5,0,50,0,26,0,34,0,0,2,26.5,0,56.5,0
10/2/2004 11:30,25.5,0,52,0,26.6,0,50,0,26.7,0,32,0,0,2,26.7,0,55.3,0
10/2/2004 11:45,25.5,0,53,0,26.8,0,49,0,27.6,0,31,0,0,2,27,0,54,0
10/2/2004 12:00,25.5,0,53,0,26.9,0,49,0,27.8,0,31,0,0,2,27.3,0,52.8,0
10/2/2004 12:15,25.6,0,53,0,27.1,0,49,0,27.8,0,31,0,0,2,27.4,0,53,0
10/2/2004 12:30,25.7,0,53,0,27.2,0,48,0,28.3,0,30,0,0,2,27.5,0,53.3,0
10/2/2004 12:45,25.8,0,52,0,27.4,0,48,0,28.4,0,29,0,0,2,27.6,0,53.5,0
10/2/2004 13:00,25.9,0,52,0,27.5,0,48,0,28.6,0,29,0,0,2,27.7,0,53.8,0
10/2/2004 13:15,26,0,52,0,27.6,0,47,0,28.1,0,29,0,0,2,27.6,0,53.5,0
10/2/2004 13:30,26,0,52,0,27.7,0,47,0,28.2,0,29,0,0,2,27.6,0,53.3,0
10/2/2004 13:45,26.2,0,52,0,27.9,0,48,0,28.4,0,28,0,0,2,27.5,0,53,0
10/2/2004 14:00,26.4,0,52,0,28,0,46,0,28.1,0,29,0,0,2,27.5,0,52.8,0
10/2/2004 14:15,26.5,0,52,0,28.2,0,46,0,28.5,0,28,0,0,2,27.4,0,53.5,0
10/2/2004 14:30,26.5,0,52,0,28.2,0,45,0,28,0,29,0,0,2,27.3,0,54.3,0
10/2/2004 14:45,26.6,0,52,0,28.2,0,45,0,27.9,0,30,0,0,2,27.2,0,55,0
10/2/2004 15:00,26.7,0,52,0,28.3,0,45,0,27.7,0,30,0,0,2,27.1,0,55.8,0
10/2/2004 15:15,26.8,0,51,0,28.3,0,45,0,27.7,0,31,0,0,2,27.1,0,55.3,0
10/2/2004 15:30,26.8,0,51,0,28.4,0,46,0,27.3,0,33,0,0,2,27.1,0,54.8,0
10/2/2004 15:45,26.9,0,51,0,28.4,0,46,0,27.1,0,32,0,0,2,27.2,0,54.3,0
10/2/2004 16:00,26.8,0,51,0,28.4,0,46,0,27.3,0,31,0,0,2,27.2,0,53.8,0
10/2/2004 16:15,26.8,0,51,0,28.4,0,45,0,27.1,0,32,0,0,2,26.8,0,56,0
10/2/2004 16:30,26.9,0,51,0,28.4,0,45,0,26.9,0,32,0,0,2,26.5,0,58.3,0
10/2/2004 16:45,26.9,0,51,0,28.4,0,45,0,26.7,0,32,0,0,2,26.1,0,60.5,0
10/2/2004 17:00,26.8,0,51,0,28.4,0,45,0,26.6,0,33,0,0,2,25.8,0,62.8,0
10/2/2004 17:15,26.8,0,51,0,28.3,0,47,0,27.6,0,32,0,0,2,25.6,0,64.1,0
10/2/2004 17:30,26.8,0,52,0,28.2,0,48,0,26.8,0,35,0,0,2,25.4,0,65.3,0
10/2/2004 17:45,26.7,0,53,0,28.2,0,48,0,26.7,0,35,0,0,2,25.3,0,66.6,0
10/2/2004 18:00,26.7,0,54,0,28.1,0,49,0,26.3,0,37,0,0,2,25.1,0,67.8,0
10/2/2004 18:15,26.7,0,55,0,28,0,49,0,26.3,0,38,0,0,2,25.1,0,67.6,0
10/2/2004 18:30,26.6,0,55,0,28,0,50,0,26,0,38,0,0,2,25.1,0,67.3,0
10/2/2004 18:45,26.7,0,55,0,27.9,0,50,0,26.1,0,39,0,0,2,25.1,0,67.1,0
10/2/2004 19:00,26.8,0,55,0,27.6,0,53,0,25.9,0,40,0,0,2,25.1,0,66.8,0
10/2/2004 19:15,26.9,0,56,0,27.5,0,55,0,25.6,0,43,0,0,2,25,0,67.8,0
10/2/2004 19:30,26.8,0,58,0,27.4,0,56,0,25.3,0,44,0,0,2,24.9,0,68.8,0
10/2/2004 19:45,26.9,0,59,0,27.4,0,56,0,25.3,0,44,0,0,2,24.8,0,69.8,0
10/2/2004 20:00,26.8,0,59,0,27.4,0,56,0,25.2,0,44,0,0,2,24.7,0,70.8,0
10/2/2004 20:15,26.7,0,59,0,27.4,0,56,0,25.3,0,44,0,0,2,24.6,0,70.8,0
10/2/2004 20:30,26.8,0,59,0,27.3,0,56,0,25,0,45,0,0,2,24.6,0,70.8,0
10/2/2004 20:45,26.6,0,59,0,27.2,0,56,0,25,0,45,0,0,2,24.5,0,70.8,0
10/2/2004 21:00,26.7,0,58,0,27.2,0,56,0,25,0,45,0,0,2,24.5,0,70.8,0
10/2/2004 21:15,26.7,0,58,0,27.2,0,56,0,24.8,0,46,0,0,2,24.5,0,71.1,0
10/2/2004 21:30,26.7,0,58,0,27.3,0,57,0,24.7,0,46,0,0,2,24.5,0,71.3,0
10/2/2004 21:45,26.7,0,58,0,27.4,0,57,0,24.7,0,47,0,0,2,24.5,0,71.6,0
10/2/2004 22:00,26.8,0,59,0,27.4,0,57,0,24.6,0,48,0,0,2,24.5,0,71.8,0
10/2/2004 22:15,26.8,0,58,0,27.6,0,58,0,24.6,0,50,0,0,2,24.4,0,71.8,0
10/2/2004 22:30,26.7,0,58,0,27.6,0,58,0,24.5,0,51,0,0,2,24.4,0,71.8,0
10/2/2004 22:45,26.7,0,59,0,27.7,0,58,0,24.4,0,51,0,0,2,24.3,0,71.8,0
10/2/2004 23:00,26.6,0,59,0,27.7,0,58,0,24.4,0,50,0,0,2,24.3,0,71.8,0
10/2/2004 23:15,26.6,0,59,0,27.7,0,58,0,24.2,0,50,0,0,2,24.3,0,71.8,0
10/2/2004 23:30,26.6,0,59,0,27.7,0,58,0,24.1,0,50,0,0,2,24.3,0,71.8,0
10/2/2004 23:45,26.6,0,59,0,27.7,0,58,0,24,0,49,0,0,2,24.4,0,71.8,0
10/3/2004 0:00,26.6,0,58,0,27.8,0,58,0,23.9,0,46,0,0,2,24.4,0,71.8,0
10/3/2004 0:15,26.5,0,57,0,27.8,0,58,0,24,0,45,0,0,2,24.3,0,72.3,0
10/3/2004 0:30,26.4,0,57,0,27.8,0,58,0,23.6,0,45,0,0,2,24.2,0,72.8,0
10/3/2004 0:45,26.3,0,57,0,27.8,0,58,0,23.7,0,46,0,0,2,24.2,0,73.3,0
10/3/2004 1:00,26.2,0,57,0,27.8,0,58,0,23.5,0,46,0,0,2,24.1,0,73.8,0
10/3/2004 1:15,26.1,0,57,0,27.8,0,57,0,23.5,0,46,0,0,2,24.1,0,73.6,0
10/3/2004 1:30,26.1,0,56,0,27.7,0,57,0,23.4,0,47,0,0,2,24,0,73.3,0
10/3/2004 1:45,26.1,0,56,0,27.7,0,56,0,23.7,0,46,0,0,2,24,0,73.1,0
10/3/2004 2:00,26,0,57,0,27.7,0,56,0,23.3,0,47,0,0,2,24,0,72.8,0
10/3/2004 2:15,26,0,57,0,27.6,0,56,0,23.3,0,48,0,0,2,23.8,0,72.1,0
10/3/2004 2:30,26,0,57,0,27.6,0,56,0,23,0,50,0,0,2,23.5,0,71.3,0
10/3/2004 2:45,25.9,0,57,0,27.6,0,56,0,22.9,0,51,0,0,2,23.3,0,70.6,0
10/3/2004 3:00,25.9,0,58,0,27.6,0,56,0,23.1,0,52,0,0,2,23.1,0,69.8,0
10/3/2004 3:15,25.9,0,58,0,27.6,0,56,0,22.8,0,55,0,0,2,22.6,0,74.3,0
10/3/2004 3:30,25.8,0,58,0,27.6,0,56,0,22.8,0,57,0,0,2,22,0,78.8,0
10/3/2004 3:45,25.8,0,58,0,27.6,0,56,0,22.9,0,56,0,0,2,21.5,0,83.3,0
10/3/2004 4:00,25.8,0,59,0,27.6,0,56,0,22.7,0,59,0,0,2,21,0,87.8,0
10/3/2004 4:15,25.7,0,59,0,27.5,0,57,0,22.4,0,64,0,0,2,21,0,87.3,0
10/3/2004 4:30,25.6,0,59,0,27.5,0,56,0,22.4,0,65,0,0,2,20.9,0,86.8,0
10/3/2004 4:45,25.7,0,59,0,27.5,0,56,0,21.9,0,68,0,0,2,20.9,0,86.3,0
10/3/2004 5:00,25.6,0,60,0,27.4,0,57,0,22.3,0,71,0,0,2,20.9,0,85.8,0
10/3/2004 5:15,25.6,0,60,0,27.4,0,57,0,22.3,0,71,0,0,2,20.8,0,86.3,0
10/3/2004 5:30,25.5,0,60,0,27.4,0,57,0,22,0,71,0,0,2,20.7,0,86.8,0
10/3/2004 5:45,25.5,0,60,0,27.4,0,57,0,22,0,70,0,0,2,20.7,0,87.3,0
10/3/2004 6:00,25.4,0,60,0,27.3,0,57,0,21.9,0,73,0,0,2,20.6,0,87.8,0
10/3/2004 6:15,25.3,0,60,0,27.3,0,57,0,21.8,0,74,0,0,2,20.5,0,88.3,0
10/3/2004 6:30,25.3,0,61,0,27.3,0,57,0,21.9,0,77,0,0,2,20.5,0,88.8,0
10/3/2004 6:45,25.2,0,62,0,27.4,0,58,0,21.6,0,78,0,0,2,20.4,0,89.3,0
10/3/2004 7:00,25.2,0,62,0,27.4,0,58,0,21.7,0,81,0,0,2,20.4,0,89.8,0
10/3/2004 7:15,25.2,0,62,0,27.5,0,58,0,21.9,0,82,0,0,2,20.4,0,89.8,0
10/3/2004 7:30,25.2,0,62,0,27.5,0,58,0,21.8,0,82,0,0,2,20.3,0,89.8,0
10/3/2004 7:45,24.8,0,64,0,27.2,0,56,0,21.8,0,83,0,0,2,20.3,0,89.8,0
10/3/2004 8:00,25.1,0,64,0,27,0,57,0,22.1,0,82,0,0,2,20.3,0,89.8,0
10/3/2004 8:15,25.1,0,64,0,26.9,0,57,0,21.5,0,82,0,0,2,20.3,0,90.1,0
10/3/2004 8:30,25.1,0,65,0,26.8,0,58,0,21.2,0,85,0,0,2,20.3,0,90.3,0
10/3/2004 8:45,25.2,0,65,0,26.6,0,58,0,20.7,0,87,0,0,2,20.4,0,90.6,0
10/3/2004 9:00,25.2,0,64,0,26.5,0,58,0,20.4,0,88,0,0,2,20.4,0,90.8,0
10/3/2004 9:15,25.1,0,64,0,26.5,0,58,0,20.4,0,89,0,0,2,20.1,0,90.6,0
10/3/2004 9:30,25,0,63,0,26.5,0,58,0,20.3,0,89,0,0,2,19.7,0,90.3,0
10/3/2004 9:45,24.9,0,63,0,26.4,0,57,0,20.7,0,89,0,0,2,19.4,0,90.1,0
10/3/2004 10:00,24.9,0,62,0,26.3,0,57,0,20.5,0,87,0,0,2,19.1,0,89.8,0
10/3/2004 10:15,24.8,0,62,0,26.2,0,57,0,20.2,0,84,0,0,2,18.9,0,89.6,0
10/3/2004 10:30,24.7,0,62,0,26.2,0,57,0,20.8,0,83,0,0,2,18.8,0,89.3,0
10/3/2004 10:45,24.7,0,62,0,26.1,0,57,0,20.5,0,79,0,0,2,18.6,0,89.1,0
10/3/2004 11:00,24.5,0,62,0,26.1,0,57,0,20.7,0,80,0,0,2,18.5,0,88.8,0
10/3/2004 11:15,24.5,0,62,0,26.1,0,57,0,20.2,0,79,0,0,2,18.4,0,89.1,0
10/3/2004 11:30,24.4,0,62,0,26,0,57,0,20.2,0,80,0,0,2,18.4,0,89.3,0
10/3/2004 11:45,24.4,0,62,0,26,0,57,0,20.3,0,83,0,0,2,18.3,0,89.6,0
10/3/2004 12:00,24.3,0,62,0,25.9,0,57,0,19.6,0,84,0,0,2,18.3,0,89.8,0
10/3/2004 12:15,24.3,0,62,0,25.8,0,57,0,19.6,0,85,0,0,2,18.3,0,89.8,0
10/3/2004 12:30,24.3,0,62,0,25.8,0,57,0,19.9,0,86,0,0,2,18.3,0,89.8,0
10/3/2004 12:45,24.2,0,62,0,25.7,0,57,0,19.4,0,85,0,0,2,18.4,0,89.8,0
10/3/2004 13:00,24.2,0,62,0,25.7,0,57,0,20,0,85,0,0,2,18.4,0,89.8,0
10/3/2004 13:15,24.2,0,63,0,25.7,0,56,0,19.6,0,82,0,0,2,18.2,0,89.8,0
10/3/2004 13:30,24.1,0,62,0,25.6,0,56,0,19.4,0,80,0,0,2,18.1,0,89.8,0
10/3/2004 13:45,24.1,0,62,0,25.5,0,56,0,19.3,0,83,0,0,2,17.9,0,89.8,0
10/3/2004 14:00,24,0,61,0,25.5,0,56,0,19,0,84,0,0,2,17.8,0,89.8,0
10/3/2004 14:15,23.9,0,62,0,25.5,0,56,0,19.1,0,85,0,0,2,17.7,0,89.8,0
10/3/2004 14:30,23.9,0,61,0,25.4,0,56,0,18.9,0,84,0,0,2,17.6,0,89.8,0
10/3/2004 14:45,23.8,0,61,0,25.4,0,56,0,19.3,0,82,0,0,2,17.5,0,89.8,0
10/3/2004 15:00,23.7,0,61,0,25.3,0,56,0,18.8,0,84,0,0,2,17.4,0,89.8,0
10/3/2004 15:15,23.7,0,61,0,25.3,0,56,0,18.8,0,83,0,0,2,17.3,0,89.8,0
10/3/2004 15:30,23.6,0,61,0,25.2,0,56,0,18.9,0,83,0,0,2,17.2,0,89.8,0
10/3/2004 15:45,23.6,0,61,0,25.1,0,56,0,19.3,0,81,0,0,2,17.2,0,89.8,0
10/3/2004 16:00,23.5,0,61,0,25.1,0,56,0,18.6,0,84,0,0,2,17.1,0,89.8,0
10/3/2004 16:15,23.5,0,61,0,24.9,0,56,0,19.1,0,83,0,0,2,17.1,0,90.1,0
10/3/2004 16:30,23.4,0,61,0,25,0,56,0,18.6,0,82,0,0,2,17,0,90.3,0
10/3/2004 16:45,23.3,0,62,0,24.8,0,56,0,18.6,0,83,0,0,2,17,0,90.6,0
10/3/2004 17:00,23.3,0,61,0,24.9,0,56,0,18.4,0,80,0,0,2,17,0,90.8,0
10/3/2004 17:15,23.2,0,61,0,24.7,0,56,0,18.8,0,80,0,0,2,16.9,0,90.6,0
10/3/2004 17:30,23.2,0,61,0,24.6,0,56,0,18.8,0,80,0,0,2,16.9,0,90.3,0
10/3/2004 17:45,23.2,0,61,0,24.7,0,56,0,18.3,0,81,0,0,2,16.8,0,90.1,0
10/3/2004 18:00,23.2,0,61,0,24.7,0,56,0,18.5,0,82,0,0,2,16.8,0,89.8,0
10/3/2004 18:15,23.2,0,62,0,24.5,0,56,0,18.3,0,83,0,0,2,16.8,0,89.8,0
10/3/2004 18:30,23.2,0,61,0,24.6,0,56,0,18.6,0,83,0,0,2,16.7,0,89.8,0
10/3/2004 18:45,23.2,0,61,0,24.5,0,56,0,18.5,0,82,0,0,2,16.7,0,89.8,0
10/3/2004 19:00,23.2,0,61,0,24.4,0,56,0,18.2,0,81,0,0,2,16.7,0,89.8,0
10/3/2004 19:15,23.2,0,61,0,24.4,0,56,0,18.4,0,80,0,0,2,16.6,0,90.1,0
10/3/2004 19:30,23.2,0,62,0,24.4,0,56,0,18.6,0,80,0,0,2,16.5,0,90.3,0
10/3/2004 19:45,23.3,0,61,0,24.3,0,56,0,18.3,0,79,0,0,2,16.5,0,90.6,0
10/3/2004 20:00,23.3,0,61,0,24.2,0,56,0,18,0,81,0,0,2,16.4,0,90.8,0
10/3/2004 20:15,23.4,0,61,0,24.3,0,56,0,17.8,0,81,0,0,2,16.4,0,90.8,0
10/3/2004 20:30,23.4,0,60,0,24.2,0,56,0,18,0,81,0,0,2,16.3,0,90.8,0
10/3/2004 20:45,23.3,0,60,0,24.2,0,56,0,17.7,0,81,0,0,2,16.3,0,90.8,0
10/3/2004 21:00,23.2,0,59,0,24.1,0,57,0,18.2,0,82,0,0,2,16.3,0,90.8,0
10/3/2004 21:15,23.2,0,60,0,24,0,57,0,18.5,0,81,0,0,2,16.2,0,90.8,0
10/3/2004 21:30,23.2,0,60,0,24,0,57,0,18.4,0,77,0,0,2,16.1,0,90.8,0
10/3/2004 21:45,23.2,0,61,0,24,0,57,0,17.5,0,79,0,0,2,16.1,0,90.8,0
10/3/2004 22:00,23.3,0,60,0,24,0,57,0,17.6,0,81,0,0,2,16,0,90.8,0
10/3/2004 22:15,23.2,0,59,0,24,0,56,0,17.8,0,82,0,0,2,16,0,90.8,0
10/3/2004 22:30,23.1,0,59,0,24,0,57,0,17.4,0,81,0,0,2,15.9,0,90.8,0
10/3/2004 22:45,23,0,59,0,23.9,0,57,0,18.1,0,82,0,0,2,15.9,0,90.8,0
10/3/2004 23:00,22.9,0,60,0,24,0,57,0,17.5,0,81,0,0,2,15.9,0,90.8,0
10/3/2004 23:15,22.8,0,60,0,23.9,0,57,0,17.5,0,81,0,0,2,15.8,0,90.6,0
10/3/2004 23:30,22.8,0,60,0,24.1,0,58,0,17.1,0,80,0,0,2,15.7,0,90.3,0
10/3/2004 23:45,22.8,0,60,0,24,0,58,0,17.3,0,81,0,0,2,15.6,0,90.1,0
10/4/2004 0:00,22.6,0,60,0,24.2,0,59,0,17.3,0,81,0,0,2,15.5,0,89.8,0
10/4/2004 0:15,22.7,0,60,0,24.3,0,60,0,17.9,0,80,0,0,2,15.5,0,89.8,0
10/4/2004 0:30,22.6,0,60,0,24.4,0,61,0,17.9,0,80,0,0,2,15.5,0,89.8,0
10/4/2004 0:45,22.4,0,60,0,24.4,0,61,0,17.4,0,81,0,0,2,15.6,0,89.8,0
10/4/2004 1:00,22.4,0,60,0,24.4,0,61,0,17.5,0,79,0,0,2,15.6,0,89.8,0
10/4/2004 1:15,22.4,0,60,0,24.5,0,62,0,17.3,0,81,0,0,2,15.6,0,90.1,0
10/4/2004 1:30,22.3,0,61,0,24.4,0,62,0,17.5,0,83,0,0,2,15.6,0,90.3,0
10/4/2004 1:45,22.2,0,61,0,24.5,0,62,0,17.6,0,83,0,0,2,15.6,0,90.6,0
10/4/2004 2:00,22.2,0,61,0,24.5,0,63,0,17.5,0,84,0,0,2,15.6,0,90.8,0
10/4/2004 2:15,22.2,0,61,0,24.5,0,62,0,17.1,0,84,0,0,2,15.6,0,91.1,0
10/4/2004 2:30,22.1,0,61,0,24.5,0,62,0,17.1,0,86,0,0,2,15.6,0,91.3,0
10/4/2004 2:45,22.1,0,61,0,24.4,0,62,0,17.5,0,86,0,0,2,15.6,0,91.6,0
10/4/2004 3:00,22,0,61,0,24.5,0,62,0,17.2,0,86,0,0,2,15.6,0,91.8,0
10/4/2004 3:15,22,0,62,0,24.5,0,62,0,17.4,0,87,0,0,2,15.6,0,91.6,0
10/4/2004 3:30,21.9,0,62,0,24.4,0,62,0,17.5,0,87,0,0,2,15.7,0,91.3,0
10/4/2004 3:45,21.9,0,62,0,24.3,0,62,0,17.2,0,88,0,0,2,15.7,0,91.1,0
10/4/2004 4:00,21.9,0,62,0,24.4,0,62,0,17.4,0,90,0,0,2,15.8,0,90.8,0
10/4/2004 4:15,21.8,0,62,0,24.4,0,62,0,17.2,0,90,0,0,2,15.8,0,90.6,0
10/4/2004 4:30,21.8,0,62,0,24.3,0,62,0,17.4,0,90,0,0,2,15.8,0,90.3,0
10/4/2004 4:45,21.8,0,62,0,24.3,0,62,0,17.4,0,90,0,0,2,15.9,0,90.1,0
10/4/2004 5:00,21.8,0,62,0,24.3,0,62,0,17.5,0,91,0,0,2,15.9,0,89.8,0
10/4/2004 5:15,21.7,0,62,0,24.1,0,62,0,17.8,0,90,0,0,2,15.9,0,90.1,0
10/4/2004 5:30,21.7,0,62,0,24.2,0,62,0,17.5,0,89,0,0,2,15.9,0,90.3,0
10/4/2004 5:45,21.6,0,62,0,24.1,0,62,0,17.5,0,90,0,0,2,16,0,90.6,0
10/4/2004 6:00,21.6,0,62,0,24,0,62,0,17.7,0,92,0,0,2,16,0,90.8,0
10/4/2004 6:15,21.6,0,63,0,24,0,62,0,17.2,0,92,0,0,2,16,0,90.8,0
10/4/2004 6:30,21.6,0,63,0,24.1,0,63,0,17.4,0,91,0,0,2,15.9,0,90.8,0
10/4/2004 6:45,21.5,0,63,0,24,0,58,0,17.3,0,92,0,0,2,15.9,0,90.8,0
10/4/2004 7:00,21.3,0,64,0,23.7,0,58,0,17.2,0,93,0,0,2,15.9,0,90.8,0
10/4/2004 7:15,21.5,0,64,0,23.5,0,58,0,17.4,0,94,0,0,2,15.9,0,90.8,0
10/4/2004 7:30,21.3,0,65,0,23.4,0,57,0,17.4,0,94,0,0,2,15.9,0,90.8,0
10/4/2004 7:45,21.4,0,65,0,23.3,0,58,0,17.5,0,96,0,0,2,16,0,90.8,0
10/4/2004 8:00,21.3,0,64,0,23.2,0,58,0,17.4,0,96,0,0,2,16,0,90.8,0
10/4/2004 8:15,21.3,0,65,0,23.2,0,58,0,17.5,0,96,0,0,2,16.1,0,90.8,0
10/4/2004 8:30,21.3,0,65,0,23.2,0,58,0,17.6,0,96,0,0,2,16.1,0,90.8,0
10/4/2004 8:45,21.3,0,65,0,23.1,0,59,0,17.5,0,97,0,0,2,16.2,0,90.8,0
10/4/2004 9:00,21.2,0,65,0,23.1,0,59,0,17.6,0,97,0,0,2,16.3,0,90.8,0
10/4/2004 9:15,21.3,0,64,0,23.1,0,59,0,17.8,0,96,0,0,2,16.4,0,90.3,0
10/4/2004 9:30,21.3,0,65,0,23,0,59,0,17.9,0,96,0,0,2,16.5,0,89.8,0
10/4/2004 9:45,21.2,0,65,0,23,0,59,0,17.9,0,96,0,0,2,16.6,0,89.3,0
10/4/2004 10:00,21.3,0,64,0,23,0,59,0,18.1,0,96,0,0,2,16.7,0,88.8,0
10/4/2004 10:15,21.2,0,65,0,23,0,58,0,18.2,0,94,0,0,2,16.7,0,89.3,0
10/4/2004 10:30,21.2,0,65,0,22.9,0,58,0,17.9,0,93,0,0,2,16.7,0,89.8,0
10/4/2004 10:45,21.3,0,64,0,22.8,0,58,0,18.1,0,94,0,0,2,16.7,0,90.3,0
10/4/2004 11:00,21.2,0,65,0,22.8,0,58,0,18,0,93,0,0,2,16.7,0,90.8,0
10/4/2004 11:15,21.2,0,65,0,22.7,0,58,0,18.1,0,94,0,0,2,16.7,0,90.8,0
10/4/2004 11:30,21.3,0,66,0,22.6,0,58,0,18,0,95,0,0,2,16.7,0,90.8,0
10/4/2004 11:45,21.2,0,66,0,22.6,0,58,0,18.5,0,95,0,0,2,16.7,0,90.8,0
10/4/2004 12:00,21.3,0,66,0,22.5,0,59,0,18.1,0,96,0,0,2,16.7,0,90.8,0
10/4/2004 12:15,21.2,0,67,0,22.5,0,58,0,18.1,0,96,0,0,2,16.7,0,90.8,0
10/4/2004 12:30,21.2,0,67,0,22.5,0,58,0,18.5,0,97,0,0,2,16.8,0,90.8,0
10/4/2004 12:45,21.4,0,68,0,22.4,0,58,0,18.6,0,97,0,0,2,16.8,0,90.8,0
10/4/2004 13:00,21.4,0,68,0,22.4,0,58,0,18.7,0,97,0,0,2,16.9,0,90.8,0